Regional Weather Roundup
Issued by NWS

Home | Current Version | Previous Version | Text Only | Print | Product List | Glossary Off
Versions: 1 2 3 4 5 6 7 8 9 10 11 12 13 14 15 16 17 18 19 20 21 22 23 24 25 26 27 28 29 30 31 32 33 34 35 36 37 38 39 40 41 42 43 44 45 46 47 48 49 50

000
ASUS43 KIND 282100
RWRIN

WEATHER ROUNDUP FOR INDIANA
NATIONAL WEATHER SERVICE INDIANAPOLIS IN
500 PM EDT WED JUN 28 2017

NOTE: "FAIR" INDICATES FEW OR NO CLOUDS BELOW 12,000 FEET WITH NO
SIGNIFICANT WEATHER AND/OR OBSTRUCTIONS TO VISIBILITY.

* - STATION DOES NOT REPORT WEATHER SUCH AS PRECIPITATION OR FOG.

+ - STATION NOT QUALITY CONTROLLED BY THE NATIONAL WEATHER SERVICE.
    USE DATA WITH CAUTION...ESPECIALLY DEWPOINT AND RELATIVE
    HUMIDITY OBSERVATIONS.

INZ001>003-010>013-019-020-282200-
NORTHWEST INDIANA

CITY           SKY/WX    TMP DP  RH WIND       PRES   REMARKS
GARY /AIRPORT/ CLOUDY    81  55  41 S14G28    29.87F
KNOX *+        CLOUDY    79  45  29 S15G26    29.93S
MICHIGAN CITY+ CLOUDY    75  55  50 S8G17     29.91R
MONTICELLO +   SUNNY     80  55  43 S13G23    29.94S
RENSSELAER +   SUNNY     81  50  34 S20G28    29.94R

$$

LMZ046-743>745-282200-
SOUTHERN LAKE MICHIGAN

STATION/POSITION TIME  TEMP    WIND        PRES    WAVE
                       AIR SEA DIR/SP/G            HT
                 (UTC) (F)     (DEG/KT/KT) (MB)    (FT)
BURNS HARBOR     2040   77     180/ 14/ 23 1012.2F
MICHIGAN CITY    2030   75     160/ 20/ 29   N/A
5NW MICH CITY    2050   73 66  180/ 17/ 25   N/A     3

$$

INZ004-005-014>016-021>024-282200-
NORTH CENTRAL INDIANA

CITY           SKY/WX    TMP DP  RH WIND       PRES   REMARKS
ELKHART        PTSUNNY   77  52  41 S18G25    29.93F
GOSHEN         CLOUDY    77  50  38 S17       29.95F
SOUTH BEND     CLOUDY    75  56  51 S21       29.93F

$$

INZ006>009-017-018-025>027-282200-
NORTHEAST INDIANA

CITY           SKY/WX    TMP DP  RH WIND       PRES   REMARKS
ANGOLA *+      SUNNY     75  70  83 S16       29.97F
FORT WAYNE     CLOUDY    77  51  40 S16       30.00F
KENDALLVILLE + PTSUNNY   76  51  41 S12G20    29.98F

$$

INZ028-029-035-036-043>045-051>053-282200-
WEST CENTRAL INDIANA

CITY           SKY/WX    TMP DP  RH WIND       PRES   REMARKS
CRAWFORDSVL +  SUNNY     79  57  47 S16G26    29.98F
LAFAYETTE      CLOUDY    80  58  46 S13G22    29.95F
TERRE HAUTE    CLOUDY    82  59  45 S15G28    29.97F

$$

INZ030>032-037>040-046>048-054>057-064-065-282200-
CENTRAL INDIANA

CITY           SKY/WX    TMP DP  RH WIND       PRES   REMARKS
COLUMBUS       MOSUNNY   81  43  26 S13       30.04F
GREENWOOD *+   PTSUNNY   80  50  34 S12G18    30.02F
INDIANAPOLIS   CLOUDY    79  56  45 S16       30.00F
-EAGLE CREEK   MOSUNNY   80  55  42 S12G20    30.00F
KOKOMO +       PTSUNNY   79  55  43 S20       29.99F
MT COMFORT *+  PTSUNNY   81  54  39 S16       30.02F
SHELBYVILLE    MOSUNNY   82  52  35 S13       30.01F

$$

INZ033-034-041-042-049-050-058-059-282200-
EAST CENTRAL INDIANA

CITY           SKY/WX    TMP DP  RH WIND       PRES   REMARKS
MUNCIE         CLOUDY    80  53  39 S14G24    30.01F
RICHMOND +     MOSUNNY   77  52  41 SW14      30.07F

$$

INZ060-061-067>069-081>083-085>088-282200-
SOUTHWEST INDIANA

CITY           SKY/WX    TMP DP  RH WIND       PRES   REMARKS
EVANSVILLE     CLOUDY    83  59  44 S13       30.01F
HUNTINGBURG *+ CLOUDY    82  60  47 S10       30.03F

$$

INZ062-063-066-070>080-084-089>092-282200-
SOUTH CENTRAL AND SOUTHEAST INDIANA

CITY           SKY/WX    TMP DP  RH WIND       PRES   REMARKS
BLOOMINGTON    CLOUDY    80  54  40 S13       30.01F
MADISON *+     CLOUDY    81  46  30 S8        30.08F
SEYMOUR +      CLOUDY    81  55  41 S6        30.04F

$$




USA.gov is the U.S. government's official web portal to all federal, state and local government web resources and services.